User: anonymous   Login
Location: Oshawa
(43.9000°N, 78.8670°W)
Time: 17:11:28
(UTC-04:00)
Language:

Thor Agena Rocket - Orbit

View from above orbital plane
View from above orbital plane
View from above satellite
View from above satellite

Ground track
Ground track

The orbit data is extracted from the following two-line orbital elements,

1   733U 64002A   16204.91515366 +.00000017 +00000-0 +24023-4 0  9997
2   733 099.1047 007.5782 0034775 055.9770 304.4707 14.32222847734759
Epoch (UTC): 22 July 2016 21:57:49
Eccentricity: 0.0034775
inclination: 99.1047°
perigee height: 759 km
apogee height: 809 km
right ascension of ascending node: 7.5782°
argument of perigee: 55.9770°
revolutions per day: 14.32222847
mean anomaly at epoch: 304.4707°
orbit number at epoch: 73475

The dashed part of the orbit path shows where the satellite is in the earth's shadow,  

DLR